Location: *
(51.4660°N, 0.3360°W)
Time: 04:34:33
(UTC+00:00)

EO 1 Delta rocket - Pass Details

Date: 19 September 2019
Orbit: 697 x 1792 km, 95.4° (Epoch: 22 October)

Event Time Altitude Azimuth Distance (km) Brightness Sun altitude
Rises 19:10:36 0° 163° (SSE) 4,095 7.4 -10.5°
Reaches altitude 10° 19:13:29 10° 162° (SSE) 2,973 6.7 -11.0°
Maximum altitude 19:20:03 78° 78° (ENE) 948 4.3 -11.9°
Drops below altitude 10° 19:25:18 10° 353° (N) 2,391 6.9 -12.7°
Sets 19:27:25 0° 352° (N) 3,244 7.6 -13.0°
